Temperature
10 9 8 8 9 10 10 10 9 9 9 8 7 7 7 8 7 6 6 5 4 4 3 2 2 2 2 2 3 3 3 3 4 4 4 4 4 4 4 4 4 4 4 4
9 8 8 9 9 9 9 8 8 9 8 8 7 6 7 7 6 5 5 5 4 3 2 2 2 2 2 2 2 2 2 3 3 3 3 3 3 3 3 3 3 3 4 4
8 8 8 8 8 8 8 7 7 7 7 7 6 5 6 6 5 5 4 4 3 3 2 1 1 1 1 1 1 1 2 2 2 2 2 2 2 2 2 3 3 3 3 3
8 7 7 7 7 7 7 7 7 6 5 5 6 4 5 5 4 4 4 3 3 2 2 1 1 1 1 1 1 1 1 1 1 1 2 2 2 2 2 2 2 2 2 2
7 6 6 6 6 6 6 5 5 5 5 4 5 4 5 5 4 3 3 3 2 2 1 1 0 0 0 0 0 0 0 0 1 1 1 1 1 1 1 1 1 1 2 2
6 6 5 5 5 5 5 5 5 4 4 3 4 4 4 3 3 3 2 2 2 1 1 0 0 -0 -0 -0 -0 -0 -0 -0 -0 -0 0 0 0 0 0 1 1 1 1 1
6 5 5 5 4 4 4 4 4 4 3 4 5 4 4 3 3 2 2 2 1 1 0 -0 -1 -1 -1 -1 -1 -1 -1 -1 -1 -1 -1 -1 -1 -0 -0 -0 -0 -0 -0 -0
6 5 4 3 4 3 4 4 4 4 5 5 3 3 3 2 2 2 2 1 1 0 -0 -1 -1 -1 -1 -1 -1 -1 -2 -1 -1 -1 -1 -1 -1 -1 -1 -1 -1 -1 -1 -1
5 4 3 3 3 3 4 3 3 3 3 3 3 3 3 2 1 1 1 0 -0 -0 -1 -1 -1 -2 -2 -2 -2 -2 -2 -2 -2 -2 -2 -2 -2 -2 -2 -2 -2 -2 -2 -2
3 3 3 2 2 2 2 2 2 2 2 3 4 4 3 1 -0 -0 -0 -0 -1 -1 -1 -1 -2 -2 -2 -2 -2 -2 -2 -3 -3 -3 -3 -3 -3 -2 -2 -2 -2 -2 -2 -2
3 2 2 2 1 2 1 1 1 2 2 2 2 3 2 1 -0 -1 -1 -0 -1 -1 -1 -2 -2 -3 -3 -3 -3 -3 -3 -3 -3 -3 -3 -3 -3 -3 -3 -3 -3 -3 -3 -3
2 1 1 2 1 1 1 1 1 1 1 1 1 1 1 -0 -0 -0 -1 -1 -1 -2 -2 -3 -3 -3 -4 -4 -4 -4 -4 -4 -4 -4 -4 -4 -4 -4 -4 -4 -4 -4 -4 -4
1 0 0 1 0 -0 -0 0 0 -0 -0 -0 0 1 0 -0 -1 -1 -1 -1 -2 -2 -3 -3 -4 -4 -4 -5 -5 -5 -5 -5 -5 -5 -5 -5 -5 -5 -4 -4 -4 -4 -4 -4
1 -1 -0 1 1 -0 -1 -1 -1 -1 -1 -1 -0 0 -0 -1 -2 -2 -2 -2 -3 -3 -4 -4 -4 -5 -5 -5 -5 -6 -6 -6 -6 -6 -6 -5 -5 -5 -5 -5 -5 -5 -5 -5
-1 -2 -1 -1 -0 -0 -1 -1 -1 -2 -1 -1 -0 -1 -1 -2 -2 -2 -2 -3 -3 -4 -4 -5 -5 -5 -6 -6 -6 -6 -6 -6 -6 -6 -6 -6 -6 -6 -6 -6 -6 -6 -6 -6
-1 -2 -2 -2 -1 -1 -1 -1 -2 -2 -1 -1 -1 -2 -2 -2 -3 -3 -3 -4 -4 -5 -5 -5 -6 -6 -6 -7 -7 -7 -7 -7 -7 -7 -7 -7 -7 -7 -7 -7 -7 -7 -6 -6
-2 -3 -2 -2 -1 -2 -2 -2 -2 -2 -2 -2 -2 -3 -4 -4 -4 -4 -4 -4 -5 -5 -6 -6 -6 -7 -7 -7 -7 -7 -8 -8 -8 -8 -8 -8 -8 -8 -8 -7 -7 -7 -7 -7
-3 -3 -3 -2 -2 -3 -2 -2 -2 -3 -3 -4 -4 -5 -4 -5 -5 -5 -5 -5 -6 -6 -6 -7 -7 -7 -7 -8 -8 -8 -8 -8 -8 -8 -8 -8 -8 -8 -8 -8 -8 -8 -8 -8
-3 -3 -3 -3 -2 -2 -2 -3 -4 -4 -4 -5 -5 -5 -5 -5 -5 -6 -6 -6 -6 -7 -7 -7 -7 -8 -8 -8 -8 -8 -8 -9 -9 -9 -9 -9 -9 -9 -9 -9 -9 -9 -9 -8
-4 -4 -4 -3 -3 -3 -2 -4 -4 -4 -5 -5 -5 -6 -6 -6 -6 -7 -7 -7 -7 -7 -7 -8 -8 -8 -8 -8 -8 -9 -9 -9 -9 -9 -9 -9 -9 -9 -10 -9 -9 -9 -9 -9
-5 -5 -4 -4 -3 -3 -4 -5 -4 -4 -4 -5 -5 -6 -7 -7 -7 -7 -8 -8 -8 -8 -8 -8 -8 -9 -9 -9 -9 -9 -9 -9 -10 -10 -10 -10 -10 -10 -10 -10 -10 -10 -10 -10
-4 -4 -5 -4 -4 -3 -6 -6 -6 -5 -5 -6 -6 -7 -7 -8 -8 -8 -8 -9 -9 -9 -9 -9 -9 -9 -9 -9 -9 -10 -10 -10 -10 -10 -10 -10 -10 -10 -10 -10 -10 -10 -10 -10
-4 -4 -4 -4 -4 -5 -5 -6 -5 -6 -6 -7 -7 -7 -8 -8 -9 -9 -9 -9 -9 -9 -9 -10 -10 -10 -10 -10 -10 -10 -10 -10 -10 -11 -11 -11 -10 -10 -11 -11 -11 -11 -11 -11
-5 -5 -5 -6 -6 -6 -6 -6 -6 -7 -7 -7 -8 -8 -8 -9 -9 -10 -10 -10 -10 -10 -10 -10 -10 -10 -10 -10 -10 -11 -11 -11 -11 -11 -11 -11 -11 -11 -11 -11 -11 -11 -11 -11
-6 -7 -7 -7 -7 -7 -6 -7 -7 -7 -8 -8 -8 -9 -9 -9 -10 -10 -10 -10 -10 -10 -10 -11 -11 -11 -11 -11 -11 -11 -11 -11 -11 -11 -11 -11 -11 -11 -11 -11 -11 -11 -11 -12
-7 -8 -8 -7 -7 -7 -7 -7 -8 -8 -8 -9 -9 -9 -10 -10 -10 -10 -11 -11 -11 -11 -11 -11 -11 -11 -11 -11 -11 -11 -11 -12 -12 -12 -12 -12 -12 -12 -12 -11 -11 -12 -12 -12
Wind_Speed
2 1 2 2 4 5 4 5 7 6 1 3 6 9 7 4 3 3 3 3 3 2 3 3 3 3 3 3 3 2 2 1 1 1 1 1 0 0 1 3 4 4 4 5
2 3 3 2 2 3 5 6 8 4 2 3 6 9 7 3 3 2 2 2 2 2 2 2 3 2 2 2 2 1 1 1 1 0 0 0 0 0 1 2 3 3 4 4
4 0 1 2 3 4 5 6 6 5 6 6 5 7 4 3 3 2 2 1 2 2 2 2 2 2 2 1 1 0 1 1 2 2 1 1 1 1 1 1 1 2 3 3
3 1 2 2 3 3 5 3 4 5 4 4 3 6 5 4 3 3 2 1 1 1 1 1 1 1 1 0 1 1 1 1 2 3 1 1 1 0 1 1 1 2 2 2
2 0 1 2 3 3 3 3 4 5 5 5 5 5 6 3 3 3 2 2 2 2 2 1 1 1 1 1 1 0 1 1 1 2 2 1 0 1 0 1 1 2 2 2
3 1 2 2 2 1 2 3 4 4 3 6 7 7 5 3 4 2 2 2 2 2 2 1 2 2 2 1 1 1 1 1 1 1 1 1 1 1 1 1 1 2 2 2
3 2 1 1 1 1 1 1 2 2 4 6 3 5 5 1 4 4 3 3 3 2 2 1 1 1 1 1 1 1 1 1 1 1 1 1 1 1 1 1 2 2 2 2
3 3 3 1 1 1 3 2 3 4 4 4 3 5 3 2 4 4 4 3 3 3 2 2 1 1 1 1 1 1 0 0 0 0 1 1 1 1 1 1 2 2 2 2
3 1 3 2 2 2 2 3 1 2 5 5 6 3 2 2 2 2 3 3 2 2 1 1 1 1 1 1 1 1 0 1 1 1 1 1 1 1 2 2 2 2 2 4
3 4 1 2 1 2 2 3 1 2 3 6 6 5 4 2 2 0 1 2 1 1 2 1 1 1 1 1 1 0 0 1 1 1 1 2 2 2 2 2 2 2 3 4
3 2 2 2 4 4 2 2 3 3 4 4 5 3 1 3 2 2 1 0 0 1 1 1 1 1 1 1 0 0 1 1 1 1 1 2 2 2 2 2 3 3 3 4
1 2 4 3 1 2 1 3 3 3 5 4 4 4 3 5 4 2 1 1 1 1 1 1 1 1 1 1 1 1 1 1 2 2 1 2 2 2 2 2 3 3 3 4
1 0 3 3 1 1 2 3 2 2 2 4 5 5 1 3 3 2 2 2 2 1 2 2 2 1 1 1 2 2 1 1 2 2 2 2 2 2 2 3 3 3 4 4
0 2 5 7 6 3 5 6 4 4 5 6 8 9 5 4 4 4 3 2 2 2 2 3 3 2 2 2 2 2 2 1 2 2 2 3 3 3 3 3 3 4 4 4
1 4 5 9 9 7 9 9 7 9 9 8 9 8 7 4 4 4 3 3 3 2 3 3 3 3 2 2 2 2 3 2 2 2 3 3 3 3 3 3 3 4 5 5
2 3 3 7 8 7 8 10 9 10 9 10 10 9 5 4 4 4 4 4 3 3 4 5 5 4 3 3 3 3 3 2 2 2 3 3 2 3 3 3 4 4 4 5
2 2 2 5 4 5 7 7 7 5 4 4 6 6 4 5 6 5 5 3 3 4 5 5 5 4 4 4 3 3 3 2 2 3 3 3 3 3 4 4 4 4 5 5
3 3 3 4 3 5 5 1 1 3 3 2 3 4 4 4 5 5 4 2 4 4 5 5 5 5 4 3 3 3 3 2 3 3 3 3 3 4 4 4 5 5 5 5
2 3 2 2 4 7 3 1 1 1 4 2 2 4 5 5 5 3 4 4 4 5 5 5 4 4 4 4 3 2 3 2 3 4 4 4 4 4 5 5 5 5 5 6
1 1 2 3 3 5 3 1 2 1 3 2 2 3 4 5 5 4 4 6 6 5 5 5 4 4 4 4 2 2 3 3 4 4 4 4 4 5 5 6 6 5 5 6
2 2 4 5 5 5 1 1 2 0 4 2 2 3 3 3 4 4 6 6 5 5 6 5 5 4 4 3 2 3 3 4 4 4 4 4 4 5 5 5 5 5 6 6
4 3 4 3 4 6 1 2 1 3 2 3 3 3 4 4 5 5 6 6 6 6 6 5 5 5 4 3 3 4 4 4 3 3 4 5 5 5 5 5 5 5 5 5
4 4 3 5 4 1 1 0 2 2 3 4 3 4 4 5 6 7 6 6 6 6 6 6 5 6 5 3 3 4 5 3 3 4 5 5 6 5 5 5 5 5 4 4
2 1 2 3 4 2 1 1 3 3 3 4 3 4 4 5 6 7 7 6 6 6 6 6 5 5 5 4 4 4 4 3 3 4 5 5 5 5 5 4 4 4 4 4
2 1 3 5 5 4 3 2 3 4 4 4 4 4 4 4 6 6 6 7 7 7 7 6 5 6 6 5 5 5 4 3 4 4 5 5 5 5 5 4 4 5 4 5
2 3 4 5 3 3 4 3 3 4 4 4 5 6 5 4 5 6 6 6 6 7 7 7 6 6 6 5 5 5 4 3 3 4 4 4 4 4 4 4 5 8 8 10
Wind_Direction
175 205 224 230 231 259 297 296 287 288 303 257 246 258 262 245 208 206 182 171 168 158 117 106 108 102 84 74 71 66 46 32 34 93 124 139 138 48 42 48 45 32 17 7
201 235 256 279 288 275 275 280 282 294 346 278 268 270 265 237 204 177 166 149 136 114 102 109 107 98 88 75 68 66 48 35 15 29 160 188 171 257 59 48 35 27 22 14
226 281 322 281 289 270 265 260 278 291 312 273 277 283 230 170 133 119 116 126 125 125 135 137 131 121 105 89 67 51 21 35 12 16 50 61 61 45 30 23 3 5 16 15
262 283 297 274 275 274 266 316 301 290 289 270 234 279 247 185 160 165 167 152 137 111 114 134 141 125 128 124 75 23 37 37 19 39 67 123 143 190 284 304 331 345 4 8
261 72 291 263 284 283 277 339 289 271 255 273 241 246 264 185 196 200 173 158 119 93 91 98 115 129 98 68 79 67 61 35 45 47 51 61 61 350 7 10 345 336 341 358
245 296 327 311 333 309 311 289 264 252 244 259 231 213 258 206 193 172 140 117 120 121 113 88 70 69 55 49 44 56 83 22 52 57 41 20 13 2 353 335 326 326 334 339
235 200 175 346 295 216 281 325 313 261 221 241 216 218 243 175 131 136 138 134 115 108 104 89 71 64 44 23 11 43 63 7 29 42 355 326 331 314 286 312 302 311 318 320
279 258 158 118 317 262 236 208 202 245 263 283 276 239 232 126 98 88 97 113 103 84 79 69 51 28 355 355 358 0 209 256 304 304 300 317 328 326 313 313 304 296 290 293
305 264 76 61 353 318 254 234 261 277 286 277 251 232 206 105 89 81 87 93 93 71 76 67 35 12 352 308 293 302 254 271 281 292 305 300 323 327 314 314 316 310 308 302
336 295 212 127 272 272 290 320 292 217 259 267 264 244 226 198 218 60 73 80 71 39 31 40 20 321 278 301 277 41 252 271 293 288 280 290 301 303 301 308 300 299 302 308
349 284 257 195 207 220 195 231 235 250 250 255 278 277 65 121 133 152 175 159 78 22 355 350 346 331 337 348 351 295 264 276 291 285 289 298 300 300 296 295 292 297 304 302
12 306 274 258 305 354 251 241 211 223 258 248 270 277 81 92 88 86 33 4 46 24 343 333 356 11 1 351 330 298 278 285 287 290 295 297 303 308 301 300 301 306 304 300
51 223 297 298 329 360 277 260 248 246 276 254 251 262 125 69 51 47 26 3 2 1 350 356 5 4 350 336 319 311 299 296 308 306 297 298 298 296 291 293 302 305 303 301
351 223 220 248 276 284 270 262 244 227 240 255 248 267 288 333 339 339 346 354 348 352 354 356 345 333 331 325 314 308 302 298 302 300 292 291 292 290 288 292 300 302 299 295
170 242 247 265 275 271 267 270 248 235 238 246 268 276 291 309 313 317 325 330 336 338 342 340 330 324 324 326 324 316 304 299 296 285 280 284 294 301 301 301 302 301 296 294
200 255 287 277 268 268 276 275 261 253 252 255 271 282 308 335 341 330 323 323 326 328 327 327 329 331 327 326 322 318 306 293 290 280 279 287 296 303 300 298 296 295 293 291
201 208 259 272 285 303 278 261 243 242 236 240 257 273 324 335 329 317 314 320 313 318 322 322 324 322 320 314 314 303 298 299 287 283 289 295 295 293 290 292 295 293 291 288
205 223 240 276 309 255 252 275 218 241 256 267 280 302 317 311 307 314 327 340 332 327 323 322 323 318 317 312 310 308 312 304 292 291 292 292 291 293 297 296 293 293 291 288
228 208 240 260 267 269 274 356 22 240 281 322 290 312 335 337 320 321 1 6 339 324 315 311 313 311 313 310 309 315 309 298 288 286 286 288 293 296 294 292 292 293 293 290
19 182 223 245 260 262 277 338 343 41 287 1 8 320 326 337 319 300 341 345 332 327 321 317 317 318 316 311 311 300 289 285 279 281 287 290 289 288 288 289 293 293 292 288
166 203 222 240 251 261 296 346 30 295 278 333 345 321 320 308 281 292 316 323 324 323 320 319 317 313 306 306 304 288 286 282 285 294 296 291 287 283 282 285 288 289 291 292
188 196 209 215 237 257 70 90 179 254 330 344 333 328 317 306 308 312 316 319 323 323 321 322 319 313 312 308 297 291 289 294 303 302 299 295 290 286 287 282 286 286 286 289
205 206 213 207 224 278 96 216 296 338 319 321 321 316 308 307 309 312 313 314 317 319 318 319 313 309 311 310 295 284 293 300 299 296 293 294 295 292 289 284 284 286 283 283
236 313 261 272 273 280 270 285 320 327 316 322 323 318 316 307 307 311 313 315 318 318 317 316 311 308 308 311 302 287 292 294 289 289 292 295 294 293 291 287 284 284 282 283
261 199 259 264 282 305 299 317 336 336 342 344 340 329 319 312 311 312 313 314 317 320 320 317 311 306 303 308 304 300 294 286 287 289 292 296 294 290 293 293 287 288 276 282
239 220 233 255 280 276 292 331 341 333 330 330 329 325 324 316 307 310 310 311 314 315 316 315 310 306 305 305 303 301 296 280 278 289 293 293 292 294 297 298 302 301 300 299
Height
1494 1497 1498 1497 1496 1494 1493 1494 1496 1493 1493 1496 1496 1495 1492 1493 1493 1494 1495 1497 1498 1499 1501 1501 1501 1502 1502 1502 1503 1503 1503 1504 1505 1506 1507 1508 1509 1510 1511 1512 1513 1513 1514 1514
1495 1498 1496 1494 1494 1494 1494 1497 1496 1494 1494 1495 1495 1493 1489 1489 1490 1491 1493 1494 1496 1497 1498 1499 1499 1500 1500 1500 1500 1501 1501 1501 1502 1503 1504 1506 1507 1507 1509 1509 1510 1511 1511 1512
1495 1496 1494 1494 1495 1495 1496 1498 1496 1497 1497 1494 1496 1493 1487 1486 1487 1489 1490 1492 1494 1495 1496 1497 1497 1497 1497 1498 1498 1498 1499 1499 1500 1501 1502 1503 1504 1505 1505 1506 1507 1508 1508 1508
1495 1495 1495 1495 1496 1496 1497 1496 1496 1497 1501 1500 1495 1500 1487 1485 1487 1488 1489 1490 1492 1493 1494 1495 1495 1495 1495 1496 1496 1497 1497 1497 1497 1498 1499 1500 1500 1501 1502 1503 1504 1504 1505 1505
1495 1496 1496 1497 1497 1497 1496 1497 1497 1497 1499 1501 1496 1499 1487 1483 1486 1487 1487 1489 1490 1492 1493 1493 1493 1493 1494 1494 1494 1494 1495 1495 1495 1496 1496 1497 1498 1499 1499 1500 1500 1501 1501 1501
1496 1496 1497 1497 1497 1497 1497 1497 1497 1498 1500 1504 1492 1496 1486 1484 1483 1484 1486 1487 1489 1490 1491 1491 1492 1492 1492 1492 1492 1492 1492 1492 1493 1493 1494 1494 1495 1495 1496 1496 1497 1497 1498 1498
1494 1496 1497 1498 1498 1498 1499 1501 1503 1501 1502 1495 1486 1488 1486 1481 1480 1482 1484 1485 1487 1488 1489 1489 1489 1489 1489 1489 1489 1489 1489 1490 1490 1491 1491 1492 1492 1493 1493 1493 1494 1494 1494 1494
1495 1497 1497 1499 1499 1501 1500 1500 1505 1505 1493 1487 1489 1488 1484 1481 1481 1482 1483 1484 1486 1487 1487 1487 1487 1487 1486 1486 1486 1486 1486 1487 1487 1488 1488 1489 1490 1490 1490 1491 1491 1490 1490 1490
1498 1497 1500 1499 1500 1500 1499 1500 1499 1502 1498 1497 1488 1482 1482 1482 1483 1483 1483 1484 1485 1485 1486 1486 1486 1485 1485 1484 1484 1484 1484 1484 1484 1485 1485 1486 1486 1487 1487 1487 1487 1487 1487 1486
1501 1503 1500 1501 1502 1501 1502 1501 1503 1504 1502 1494 1482 1479 1481 1484 1484 1484 1484 1484 1485 1485 1485 1485 1485 1484 1483 1483 1482 1482 1482 1482 1482 1482 1482 1482 1483 1483 1483 1483 1483 1483 1483 1482
1503 1507 1503 1502 1503 1500 1503 1504 1502 1501 1498 1496 1490 1485 1480 1481 1481 1483 1484 1484 1484 1484 1484 1483 1483 1483 1482 1481 1480 1480 1479 1479 1479 1479 1479 1479 1479 1479 1479 1479 1479 1478 1478 1478
1504 1507 1505 1500 1499 1499 1499 1499 1501 1505 1500 1494 1494 1491 1482 1481 1481 1482 1482 1482 1483 1483 1483 1482 1481 1481 1480 1479 1478 1477 1476 1476 1475 1475 1475 1475 1475 1475 1475 1475 1474 1474 1474 1473
1506 1509 1509 1501 1503 1504 1502 1500 1500 1502 1502 1499 1496 1491 1483 1481 1482 1482 1482 1482 1481 1481 1481 1480 1479 1478 1477 1476 1475 1474 1474 1473 1472 1472 1471 1471 1471 1471 1471 1470 1470 1470 1469 1468
1505 1508 1509 1505 1499 1501 1503 1500 1500 1502 1502 1497 1491 1485 1483 1483 1483 1482 1482 1481 1480 1480 1479 1478 1477 1476 1475 1474 1472 1471 1470 1470 1469 1468 1468 1467 1467 1467 1466 1466 1466 1465 1465 1464
1505 1508 1505 1501 1498 1498 1497 1496 1496 1497 1494 1494 1486 1484 1482 1482 1482 1481 1480 1479 1479 1478 1477 1476 1475 1474 1472 1471 1469 1468 1467 1466 1465 1464 1464 1463 1463 1463 1462 1462 1461 1461 1460 1459
1504 1506 1504 1502 1495 1495 1495 1492 1492 1490 1489 1487 1484 1484 1481 1481 1480 1479 1478 1478 1477 1476 1475 1474 1473 1471 1469 1468 1466 1465 1464 1463 1462 1461 1460 1460 1459 1459 1459 1458 1457 1456 1455 1455
1504 1507 1505 1499 1494 1494 1495 1488 1488 1487 1484 1485 1485 1485 1482 1481 1480 1478 1477 1476 1475 1474 1473 1472 1470 1468 1467 1465 1464 1462 1461 1459 1458 1457 1457 1456 1455 1455 1454 1454 1453 1452 1451 1450
1503 1504 1504 1500 1498 1501 1488 1483 1483 1483 1483 1484 1483 1482 1481 1480 1479 1477 1475 1474 1473 1472 1471 1469 1467 1465 1464 1462 1461 1459 1458 1456 1455 1454 1453 1452 1452 1451 1450 1450 1449 1448 1447 1445
1500 1502 1502 1500 1496 1488 1483 1483 1483 1484 1483 1482 1482 1481 1480 1478 1476 1475 1475 1473 1472 1470 1468 1466 1464 1463 1461 1459 1457 1456 1454 1453 1452 1450 1450 1449 1448 1447 1446 1446 1445 1443 1442 1441
1500 1501 1503 1499 1498 1493 1485 1485 1482 1484 1484 1482 1481 1480 1479 1478 1477 1475 1473 1471 1469 1467 1465 1463 1461 1459 1457 1455 1454 1452 1450 1449 1448 1447 1446 1445 1444 1443 1442 1442 1441 1440 1438 1437
1502 1503 1503 1500 1496 1488 1486 1484 1483 1488 1484 1482 1480 1479 1479 1478 1477 1474 1471 1469 1466 1464 1461 1459 1457 1455 1454 1452 1450 1448 1447 1446 1445 1444 1443 1442 1441 1440 1439 1438 1437 1436 1434 1432
1497 1499 1499 1497 1495 1490 1485 1484 1486 1485 1481 1480 1479 1478 1477 1475 1473 1471 1468 1466 1463 1460 1458 1456 1454 1451 1450 1449 1447 1445 1443 1442 1441 1440 1439 1438 1437 1437 1436 1434 1433 1432 1430 1428
1492 1492 1490 1490 1490 1485 1483 1482 1482 1481 1480 1478 1477 1476 1474 1472 1470 1468 1465 1463 1460 1458 1455 1453 1451 1448 1446 1445 1444 1441 1440 1439 1438 1437 1436 1435 1434 1433 1432 1431 1429 1428 1426 1424
1489 1488 1488 1487 1484 1482 1482 1481 1480 1479 1478 1476 1475 1473 1471 1469 1467 1465 1462 1460 1458 1455 1453 1450 1447 1445 1443 1441 1440 1438 1437 1436 1434 1433 1432 1431 1430 1429 1428 1427 1426 1424 1423 1421
1488 1488 1488 1486 1483 1481 1479 1478 1478 1477 1475 1474 1472 1471 1469 1466 1464 1462 1459 1457 1455 1452 1450 1447 1445 1442 1440 1438 1437 1435 1434 1433 1431 1430 1429 1428 1427 1426 1424 1423 1422 1421 1420 1419
1486 1487 1487 1483 1481 1480 1478 1477 1476 1474 1472 1471 1469 1467 1465 1464 1461 1459 1457 1454 1452 1449 1447 1444 1442 1439 1437 1435 1433 1432 1431 1429 1428 1426 1425 1424 1423 1422 1421 1419 1418 1417 1416 1415